N42J KORF-KRIC

Flight info

Callsign N42J
Flight time 0h 27m
Altitude 8500
Route KORF/05 N0275F140 DCT HOUKY DCT ESORE DCT FIBUG DCT GORDD DCT KRIC/16
Aircraft PC12/L-V/N

Departure

Time 2026-04-28 19:25
Airport Norfolk International Airport (KORF)

Arrival

Time 2026-04-28 19:52
Airport Richmond International Airport (KRIC)
Time Latitude Longitude Altitude Speed Heading
2026-04-28 19:17 36.88711 -76.20076 22 ft 0 kts 128°
2026-04-28 19:20 36.88701 -76.20059 22 ft 7 kts 113°
2026-04-28 19:20 36.88758 -76.20032 22 ft 17 kts 321°
2026-04-28 19:20 36.88835 -76.20185 22 ft 25 kts 289°
2026-04-28 19:21 36.88864 -76.20361 22 ft 15 kts 233°
2026-04-28 19:21 36.88755 -76.20471 22 ft 24 kts 218°
2026-04-28 19:21 36.88599 -76.20618 18 ft 30 kts 220°
2026-04-28 19:21 36.88559 -76.20744 17 ft 0 kts 303°
2026-04-28 19:23 36.88571 -76.20765 16 ft 9 kts 308°
2026-04-28 19:24 36.88648 -76.20774 17 ft 17 kts 38°
2026-04-28 19:24 36.88880 -76.20549 22 ft 79 kts 37°
2026-04-28 19:24 36.89465 -76.19994 113 ft 120 kts 36°
2026-04-28 19:24 36.90205 -76.19302 383 ft 144 kts 39°
2026-04-28 19:25 36.91016 -76.18471 743 ft 159 kts 42°
2026-04-28 19:25 36.91700 -76.17329 1112 ft 171 kts 73°
2026-04-28 19:25 36.92028 -76.15853 1445 ft 184 kts 63°
2026-04-28 19:25 36.92966 -76.14722 1782 ft 195 kts 35°
2026-04-28 19:26 36.94207 -76.13956 2084 ft 204 kts
2026-04-28 19:26 36.95581 -76.14259 2385 ft 207 kts 329°
2026-04-28 19:26 36.96648 -76.15475 2707 ft 210 kts 311°
2026-04-28 19:26 36.97619 -76.16860 3039 ft 214 kts 310°
2026-04-28 19:27 36.98529 -76.18346 3340 ft 215 kts 295°
2026-04-28 19:27 36.98743 -76.20143 3620 ft 214 kts 262°
2026-04-28 19:27 36.98382 -76.21961 3943 ft 215 kts 255°
2026-04-28 19:27 36.97946 -76.23744 4266 ft 215 kts 255°
2026-04-28 19:28 36.97498 -76.25519 4591 ft 216 kts 255°
2026-04-28 19:28 36.97038 -76.27305 4917 ft 215 kts 255°
2026-04-28 19:28 36.96567 -76.29076 5235 ft 215 kts 255°
2026-04-28 19:28 36.96095 -76.30856 5568 ft 212 kts 259°
2026-04-28 19:29 36.96259 -76.32594 5946 ft 204 kts 289°
2026-04-28 19:29 36.96549 -76.33726 6164 ft 204 kts 289°
2026-04-28 19:29 36.97207 -76.35941 6606 ft 202 kts 294°
2026-04-28 19:29 36.97771 -76.37532 6936 ft 202 kts 296°
2026-04-28 19:30 36.98388 -76.39118 7266 ft 202 kts 297°
2026-04-28 19:30 36.99032 -76.40673 7598 ft 202 kts 298°
2026-04-28 19:30 36.99704 -76.42223 7927 ft 202 kts 299°
2026-04-28 19:30 37.00383 -76.43742 8238 ft 202 kts 300°
2026-04-28 19:31 37.01090 -76.45284 8460 ft 207 kts 300°
2026-04-28 19:31 37.01837 -76.46880 8506 ft 218 kts 301°
2026-04-28 19:31 37.02638 -76.48520 8501 ft 227 kts 301°
2026-04-28 19:31 37.03495 -76.50234 8500 ft 234 kts 302°
2026-04-28 19:32 37.04380 -76.51978 8503 ft 238 kts 303°
2026-04-28 19:32 37.05269 -76.53735 8503 ft 241 kts 302°
2026-04-28 19:32 37.06175 -76.55545 8499 ft 243 kts 302°
2026-04-28 19:32 37.07067 -76.57341 8492 ft 244 kts 302°
2026-04-28 19:33 37.07961 -76.59167 8490 ft 245 kts 302°
2026-04-28 19:33 37.08845 -76.60984 8496 ft 245 kts 301°
2026-04-28 19:33 37.09724 -76.62799 8493 ft 246 kts 302°
2026-04-28 19:33 37.10611 -76.64646 8497 ft 246 kts 301°
2026-04-28 19:34 37.11491 -76.66475 8502 ft 246 kts 301°
2026-04-28 19:34 37.12374 -76.68314 8500 ft 247 kts 301°
2026-04-28 19:34 37.13261 -76.70158 8492 ft 247 kts 301°
2026-04-28 19:34 37.14156 -76.71995 8497 ft 247 kts 301°
2026-04-28 19:35 37.15050 -76.73860 8496 ft 247 kts 301°
2026-04-28 19:35 37.15923 -76.75697 8497 ft 247 kts 300°
2026-04-28 19:35 37.16803 -76.77549 8495 ft 247 kts 301°
2026-04-28 19:35 37.17685 -76.79398 8497 ft 248 kts 301°
2026-04-28 19:36 37.18569 -76.81254 8502 ft 247 kts 301°
2026-04-28 19:36 37.19450 -76.83104 8503 ft 247 kts 301°
2026-04-28 19:36 37.20304 -76.84980 8495 ft 247 kts 298°
2026-04-28 19:36 37.21099 -76.86872 8490 ft 247 kts 298°
2026-04-28 19:37 37.21924 -76.88756 8487 ft 247 kts 300°
2026-04-28 19:37 37.22490 -76.89997 8493 ft 247 kts 300°
2026-04-28 19:37 37.23653 -76.92483 8484 ft 248 kts 301°
2026-04-28 19:37 37.24534 -76.94343 8473 ft 248 kts 301°
2026-04-28 19:38 37.25420 -76.96204 8478 ft 247 kts 301°
2026-04-28 19:38 37.26297 -76.98058 8471 ft 247 kts 301°
2026-04-28 19:38 37.27164 -76.99908 8459 ft 248 kts 300°
2026-04-28 19:38 37.28042 -77.01769 8479 ft 248 kts 301°
2026-04-28 19:39 37.28929 -77.03637 8479 ft 248 kts 301°
2026-04-28 19:39 37.29814 -77.05510 8470 ft 248 kts 301°
2026-04-28 19:39 37.30692 -77.07376 8467 ft 248 kts 301°
2026-04-28 19:39 37.31570 -77.09189 8290 ft 241 kts 304°
2026-04-28 19:40 37.32485 -77.10825 8025 ft 220 kts 305°
2026-04-28 19:40 37.33259 -77.12382 7734 ft 205 kts 302°
2026-04-28 19:40 37.34220 -77.13605 7576 ft 194 kts 324°
2026-04-28 19:40 37.35326 -77.14526 7370 ft 192 kts 323°
2026-04-28 19:41 37.36408 -77.15443 7166 ft 191 kts 324°
2026-04-28 19:41 37.37530 -77.16361 6958 ft 191 kts 324°
2026-04-28 19:41 37.38635 -77.17244 6752 ft 191 kts 325°
2026-04-28 19:41 37.39739 -77.18115 6548 ft 190 kts 326°
2026-04-28 19:42 37.40852 -77.18985 6340 ft 190 kts 326°
2026-04-28 19:42 37.41974 -77.19863 6131 ft 190 kts 326°
2026-04-28 19:42 37.43103 -77.20752 5922 ft 190 kts 326°
2026-04-28 19:42 37.43853 -77.21341 5783 ft 190 kts 326°
2026-04-28 19:43 37.45339 -77.22504 5502 ft 190 kts 326°
2026-04-28 19:43 37.46473 -77.23391 5288 ft 191 kts 326°
2026-04-28 19:43 37.47591 -77.24274 5082 ft 192 kts 326°
2026-04-28 19:43 37.48727 -77.25160 4873 ft 193 kts 326°
2026-04-28 19:44 37.49873 -77.26061 4659 ft 193 kts 326°
2026-04-28 19:44 37.51009 -77.26955 4448 ft 195 kts 326°
2026-04-28 19:44 37.52166 -77.27867 4236 ft 196 kts 326°
2026-04-28 19:44 37.53316 -77.28767 4027 ft 197 kts 326°
2026-04-28 19:45 37.54490 -77.29691 3815 ft 198 kts 326°
2026-04-28 19:45 37.55665 -77.30616 3601 ft 200 kts 326°
2026-04-28 19:45 37.56848 -77.31544 3384 ft 201 kts 326°
2026-04-28 19:45 37.58028 -77.32477 3175 ft 203 kts 326°
2026-04-28 19:46 37.59232 -77.33420 2962 ft 202 kts 327°
2026-04-28 19:46 37.60416 -77.34326 2743 ft 197 kts 327°
2026-04-28 19:46 37.61562 -77.35227 2530 ft 192 kts 326°
2026-04-28 19:46 37.62463 -77.36359 2458 ft 173 kts 297°
2026-04-28 19:47 37.62675 -77.37750 2445 ft 153 kts 259°
2026-04-28 19:47 37.62267 -77.38896 2432 ft 139 kts 228°
2026-04-28 19:47 37.61503 -77.39313 2548 ft 121 kts 188°
2026-04-28 19:47 37.60677 -77.39082 2490 ft 118 kts 167°
2026-04-28 19:48 37.59949 -77.38687 2517 ft 112 kts 162°
2026-04-28 19:48 37.59251 -77.38216 2484 ft 113 kts 160°
2026-04-28 19:48 37.58557 -77.37765 2473 ft 106 kts 159°
2026-04-28 19:48 37.57919 -77.37286 2213 ft 109 kts 151°
2026-04-28 19:49 37.57301 -77.36801 1840 ft 106 kts 155°
2026-04-28 19:49 37.56690 -77.36340 1504 ft 100 kts 155°
2026-04-28 19:49 37.56132 -77.35903 1245 ft 96 kts 153°
2026-04-28 19:49 37.55574 -77.35466 1064 ft 91 kts 152°
2026-04-28 19:50 37.54488 -77.34615 846 ft 91 kts 155°
2026-04-28 19:50 37.53946 -77.34184 734 ft 92 kts 150°
2026-04-28 19:50 37.53410 -77.33753 636 ft 92 kts 151°
2026-04-28 19:51 37.52860 -77.33323 509 ft 94 kts 153°
2026-04-28 19:51 37.52310 -77.32876 345 ft 93 kts 153°
2026-04-28 19:51 37.51764 -77.32439 227 ft 91 kts 150°
2026-04-28 19:51 37.51278 -77.32049 164 ft 67 kts 152°
2026-04-28 19:52 37.51016 -77.31838 160 ft 27 kts 150°
2026-04-28 19:52 37.50899 -77.31792 160 ft 15 kts 213°
2026-04-28 19:52 37.50894 -77.31949 161 ft 23 kts 279°
2026-04-28 19:52 37.50938 -77.32149 163 ft 26 kts 283°
2026-04-28 19:53 37.50956 -77.32248 163 ft 1 kts 283°